Weather History for Colima, Mexico

Change the Weather History Date:

Monday, April 29, 2013

  Actual Average Record
Temperature  
Mean Temperature 77 °F -  
Max Temperature 92 °F 87 °F 93 °F (2014)
Min Temperature 62 °F 69 °F 37 °F (1997)
Cooling Degree Days 12    
Growing Degree Days 27 (Base 50)    
Moisture  
Dew Point 57 °F    
Average Humidity 50    
Maximum Humidity 78    
Minimum Humidity 30    
Precipitation  
Precipitation 0.00 in - - ()
Sea Level Pressure  
Sea Level Pressure 29.88 in    
Wind  
Wind Speed 5 mph ()    
Max Wind Speed 17 mph    
Max Gust Speed -    
Visibility 7.2 miles    
Events      
Averages and records for this station are not official NWS values.
T = Trace of Precipitation, MM = Missing Value Source: Averaged Metar Reports

Daily Weather History Graph

Daily Weather History Graph

Search for Another Location

Airport:

Trip Planner

Search our weather history database for the weather conditions in past years. The results will help you decide how hot, cold, wet, or windy it might be!

Date:

Astronomy

Apr. 29, 2013 Rise Set
Actual Time 7:27 AM CDT 8:16 PM CDT
Civil Twilight 7:04 AM CDT 8:39 PM CDT
Nautical Twilight 6:37 AM CDT 9:06 PM CDT
Astronomical Twilight 6:09 AM CDT 9:33 PM CDT
Moon No Moon Rise 11:03 AM CDT (4/29)
Length of Visible Light 13h 35m
Length of Day
12h 49m
Waning Gibbous, 80% of the Moon is Illuminated
Apr 29
Waning Gibbous
May 2
Last Quarter
May 9
New
May 17
First Quarter
May 24
Full

Hourly Weather History & Observations

Time (CDT) Temp. Heat Index Dew Point Humidity Pressure Visibility Wind Dir Wind Speed Gust Speed Precip Events Conditions
5:58 AM 68.0 °F - 48.2 °F 49% 29.90 in 8.0 mi Calm Calm - N/A   Scattered Clouds
6:46 AM 68.0 °F - 48.2 °F 49% 29.90 in 8.0 mi Calm Calm - N/A   Scattered Clouds
6:50 AM 64 °F - 56 °F 67% 29.90 in 5 mi North 2.2 mph - -   Haze
7:52 AM 69.8 °F - 48.2 °F 46% 29.92 in 8.0 mi Calm Calm - N/A   Scattered Clouds
8:47 AM 71.6 °F - 50.0 °F 46% 29.93 in 8.0 mi Calm Calm - N/A   Scattered Clouds
9:40 AM 74 °F - 59 °F 50% 29.89 in 6 mi SE 2.2 mph - -   Haze
9:49 AM 77.0 °F - 53.6 °F 44% 29.94 in 8.0 mi Calm Calm - N/A   Scattered Clouds
10:53 AM 77.0 °F - 53.6 °F 44% 29.94 in 8.0 mi Calm Calm - N/A   Scattered Clouds
11:53 AM 78.8 °F - 55.4 °F 44% 29.93 in 8.0 mi SSW 11.5 mph - N/A   Scattered Clouds
12:40 PM 87 °F - 60 °F 30% 29.84 in 6 mi South 6.7 mph - -   Haze
12:48 PM 80.6 °F 80.8 °F 57.2 °F 45% 29.91 in 6.0 mi SSW 11.5 mph - N/A   Scattered Clouds
1:47 PM 82.4 °F 81.7 °F 55.4 °F 39% 29.90 in 6.0 mi WSW 17.3 mph - N/A   Clear
2:44 PM 80.6 °F 81.5 °F 60.8 °F 51% 29.87 in 8.0 mi WSW 11.5 mph - N/A   Clear
3:44 PM 80.6 °F 81.1 °F 59.0 °F 48% 29.86 in 8.0 mi WSW 17.3 mph - N/A   Clear
3:54 PM 88 °F - 64 °F 34% 29.78 in 6 mi South 8.9 mph - -   Haze
4:40 PM 78.8 °F - 59.0 °F 51% 29.85 in 8.0 mi SW 13.8 mph - N/A   Clear
5:43 PM 77.0 °F - 57.2 °F 50% 29.85 in 8.0 mi WSW 11.5 mph - N/A   Partly Cloudy
6:51 PM 80 °F - 65 °F 50% 29.76 in 6 mi South 8.9 mph - -   Haze
6:54 PM 88 °F - 65 °F 36% 29.84 in 6 mi South 8.9 mph - -   Haze
7:02 PM 77.0 °F - 57.2 °F 50% 29.85 in 8.0 mi West 17.3 mph - N/A   Scattered Clouds
7:46 PM 73.4 °F - 57.2 °F 57% 29.87 in 8.0 mi West 17.3 mph - N/A   Scattered Clouds
8:49 PM 69.8 °F - 62.6 °F 78% 29.90 in 8.0 mi West 9.2 mph - N/A   Scattered Clouds
9:45 PM 69.8 °F - 62.6 °F 78% 29.91 in 8.0 mi West 11.5 mph - N/A   Scattered Clouds
9:49 PM 72 °F - 65 °F 72% 29.84 in 5 mi SW 2.2 mph - -   Haze